Time,TemperatureF,DewpointF,PressureIn,WindDirection,WindDirectionDegrees,WindSpeedMPH,WindSpeedGustMPH,Humidity,HourlyPrecipIn,Conditions,Clouds,dailyrainin,SoftwareType,DateUTC
2013-01-22 00:01:00,17.0,16.0,30.42,SSE,154,0.0,0.0,95,0.00,,,0.00,weatherlink.com 1.10,2013-01-22 08:01:00,
2013-01-22 00:16:00,16.9,16.0,30.41,SSE,154,0.0,0.0,95,0.00,,,0.00,weatherlink.com 1.10,2013-01-22 08:16:00,
2013-01-22 00:31:00,16.9,16.0,30.41,SSE,154,0.0,0.0,95,0.00,,,0.00,weatherlink.com 1.10,2013-01-22 08:31:00,
2013-01-22 00:46:00,17.0,16.0,30.42,SSE,154,0.0,0.0,96,0.00,,,0.00,weatherlink.com 1.10,2013-01-22 08:46:00,
2013-01-22 01:01:00,17.0,16.0,30.41,SSE,154,0.0,0.0,96,0.00,,,0.00,weatherlink.com 1.10,2013-01-22 09:01:00,
2013-01-22 01:16:00,17.0,16.0,30.41,SSE,154,0.0,0.0,96,0.00,,,0.00,weatherlink.com 1.10,2013-01-22 09:16:00,
2013-01-22 01:31:00,17.1,16.0,30.42,SSE,154,0.0,0.0,96,0.00,,,0.00,weatherlink.com 1.10,2013-01-22 09:31:00,
2013-01-22 01:46:00,17.1,16.0,30.41,SSE,154,0.0,0.0,96,0.00,,,0.00,weatherlink.com 1.10,2013-01-22 09:46:00,
2013-01-22 02:01:00,17.2,16.0,30.41,SSE,154,0.0,0.0,96,0.00,,,0.00,weatherlink.com 1.10,2013-01-22 10:01:00,
2013-01-22 02:16:00,17.3,16.0,30.41,SSE,154,0.0,0.0,96,0.00,,,0.00,weatherlink.com 1.10,2013-01-22 10:16:00,
2013-01-22 02:31:00,17.3,16.0,30.41,SSE,154,0.0,0.0,95,0.00,,,0.00,weatherlink.com 1.10,2013-01-22 10:31:00,
2013-01-22 02:46:00,17.3,16.0,30.40,SSE,154,0.0,0.0,95,0.00,,,0.00,weatherlink.com 1.10,2013-01-22 10:46:00,
2013-01-22 03:01:00,17.3,16.0,30.40,SSE,154,0.0,0.0,95,0.00,,,0.00,weatherlink.com 1.10,2013-01-22 11:01:00,
2013-01-22 03:16:00,17.2,16.0,30.40,SSE,154,0.0,0.0,95,0.00,,,0.00,weatherlink.com 1.10,2013-01-22 11:16:00,
2013-01-22 03:31:00,17.1,16.0,30.40,SSE,154,0.0,0.0,94,0.00,,,0.00,weatherlink.com 1.10,2013-01-22 11:31:00,
2013-01-22 03:46:00,17.0,16.0,30.40,SSE,154,0.0,0.0,94,0.00,,,0.00,weatherlink.com 1.10,2013-01-22 11:46:00,
2013-01-22 04:01:00,16.8,15.0,30.40,SSE,154,0.0,0.0,94,0.00,,,0.00,weatherlink.com 1.10,2013-01-22 12:01:00,
2013-01-22 04:46:00,16.6,15.0,30.40,SSE,154,0.0,0.0,94,0.00,,,0.00,weatherlink.com 1.10,2013-01-22 12:46:00,
2013-01-22 05:16:00,16.4,15.0,30.39,SSE,154,0.0,0.0,94,0.00,,,0.00,weatherlink.com 1.10,2013-01-22 13:16:00,
2013-01-22 05:31:00,16.4,15.0,30.38,SSE,154,0.0,0.0,94,0.00,,,0.00,weatherlink.com 1.10,2013-01-22 13:31:00,
2013-01-22 06:46:00,16.2,15.0,30.37,SSE,159,0.0,0.0,94,0.00,,,0.00,weatherlink.com 1.10,2013-01-22 14:46:00,
2013-01-22 07:01:00,16.2,15.0,30.36,SSE,159,0.0,0.0,95,0.00,,,0.00,weatherlink.com 1.10,2013-01-22 15:01:00,
2013-01-22 07:16:00,16.1,15.0,30.37,SSE,150,0.0,0.0,95,0.00,,,0.00,weatherlink.com 1.10,2013-01-22 15:16:00,
2013-01-22 07:31:00,15.9,15.0,30.37,SSE,150,0.0,1.0,95,0.00,,,0.00,weatherlink.com 1.10,2013-01-22 15:31:00,
2013-01-22 07:46:00,15.8,15.0,30.38,SSE,150,0.0,0.0,96,0.00,,,0.00,weatherlink.com 1.10,2013-01-22 15:46:00,
2013-01-22 08:16:00,15.8,15.0,30.38,SSE,150,0.0,0.0,95,0.00,,,0.00,weatherlink.com 1.10,2013-01-22 16:16:00,
2013-01-22 08:31:00,15.9,15.0,30.39,SSE,150,0.0,0.0,95,0.00,,,0.00,weatherlink.com 1.10,2013-01-22 16:31:00,
2013-01-22 08:46:00,16.0,15.0,30.40,SSE,150,0.0,0.0,95,0.00,,,0.00,weatherlink.com 1.10,2013-01-22 16:46:00,
2013-01-22 09:01:00,16.0,15.0,30.40,SSE,150,0.0,0.0,94,0.00,,,0.00,weatherlink.com 1.10,2013-01-22 17:01:00,
2013-01-22 09:16:00,15.9,15.0,30.39,SE,140,0.0,0.0,94,0.00,,,0.00,weatherlink.com 1.10,2013-01-22 17:16:00,
2013-01-22 09:32:00,16.1,15.0,30.40,SE,140,0.0,0.0,94,0.00,,,0.00,weatherlink.com 1.10,2013-01-22 17:32:00,
2013-01-22 09:46:00,16.2,15.0,30.41,SE,140,0.0,0.0,94,0.00,,,0.00,weatherlink.com 1.10,2013-01-22 17:46:00,
2013-01-22 10:02:00,16.6,15.0,30.41,SE,140,0.0,0.0,94,0.00,,,0.00,weatherlink.com 1.10,2013-01-22 18:02:00,
2013-01-22 10:16:00,17.2,16.0,30.41,SE,140,0.0,0.0,94,0.00,,,0.00,weatherlink.com 1.10,2013-01-22 18:16:00,
2013-01-22 10:31:00,17.5,16.0,30.41,SE,140,0.0,0.0,93,0.00,,,0.00,weatherlink.com 1.10,2013-01-22 18:31:00,
2013-01-22 10:46:00,17.6,16.0,30.41,SE,140,0.0,0.0,93,0.00,,,0.00,weatherlink.com 1.10,2013-01-22 18:46:00,
2013-01-22 11:02:00,17.8,16.0,30.40,South,182,0.0,0.0,94,0.00,,,0.00,weatherlink.com 1.10,2013-01-22 19:02:00,
2013-01-22 11:17:00,18.0,16.0,30.39,SSW,194,0.0,0.0,93,0.00,,,0.00,weatherlink.com 1.10,2013-01-22 19:17:00,
2013-01-22 11:31:00,18.3,17.0,30.39,SSW,194,0.0,0.0,94,0.00,,,0.00,weatherlink.com 1.10,2013-01-22 19:31:00,
2013-01-22 12:02:00,19.0,17.0,30.37,SE,139,0.0,0.0,93,0.00,,,0.00,weatherlink.com 1.10,2013-01-22 20:02:00,
2013-01-22 12:17:00,19.5,18.0,30.36,SE,139,0.0,0.0,93,0.00,,,0.00,weatherlink.com 1.10,2013-01-22 20:17:00,
2013-01-22 12:32:00,20.1,18.0,30.36,SE,139,0.0,0.0,92,0.00,,,0.00,weatherlink.com 1.10,2013-01-22 20:32:00,
2013-01-22 12:47:00,20.6,18.0,30.35,SE,139,0.0,0.0,91,0.00,,,0.00,weatherlink.com 1.10,2013-01-22 20:47:00,
2013-01-22 13:02:00,21.0,19.0,30.34,SE,127,0.0,1.0,90,0.00,,,0.00,weatherlink.com 1.10,2013-01-22 21:02:00,
2013-01-22 13:17:00,21.1,19.0,30.34,SE,128,0.0,0.0,90,0.00,,,0.00,weatherlink.com 1.10,2013-01-22 21:17:00,
2013-01-22 13:32:00,21.5,19.0,30.33,SE,128,0.0,0.0,91,0.00,,,0.00,weatherlink.com 1.10,2013-01-22 21:32:00,
2013-01-22 13:47:00,21.7,19.0,30.33,SE,128,0.0,0.0,90,0.00,,,0.00,weatherlink.com 1.10,2013-01-22 21:47:00,
2013-01-22 14:02:00,21.6,19.0,30.33,SE,129,0.0,0.0,88,0.00,,,0.00,weatherlink.com 1.10,2013-01-22 22:02:00,
2013-01-22 14:17:00,21.8,19.0,30.33,SE,129,0.0,0.0,88,0.00,,,0.00,weatherlink.com 1.10,2013-01-22 22:17:00,
2013-01-22 14:32:00,22.0,19.0,30.33,SE,129,0.0,0.0,89,0.00,,,0.00,weatherlink.com 1.10,2013-01-22 22:32:00,
2013-01-22 14:47:00,22.3,19.0,30.33,SE,129,0.0,0.0,88,0.00,,,0.00,weatherlink.com 1.10,2013-01-22 22:47:00,
2013-01-22 15:02:00,22.3,19.0,30.32,SW,217,0.0,0.0,88,0.00,,,0.00,weatherlink.com 1.10,2013-01-22 23:02:00,
2013-01-22 15:17:00,22.2,20.0,30.33,SW,216,0.0,0.0,89,0.00,,,0.00,weatherlink.com 1.10,2013-01-22 23:17:00,
2013-01-22 15:32:00,22.2,20.0,30.31,SW,216,0.0,0.0,89,0.00,,,0.00,weatherlink.com 1.10,2013-01-22 23:32:00,
2013-01-22 15:47:00,22.1,20.0,30.31,SW,216,0.0,0.0,90,0.00,,,0.00,weatherlink.com 1.10,2013-01-22 23:47:00,
2013-01-22 16:02:00,22.0,20.0,30.31,SSE,160,0.0,1.0,90,0.00,,,0.00,weatherlink.com 1.10,2013-01-23 00:02:00,
2013-01-22 16:17:00,21.7,19.0,30.32,SSE,160,0.0,0.0,90,0.00,,,0.00,weatherlink.com 1.10,2013-01-23 00:17:00,
2013-01-22 16:32:00,21.2,19.0,30.31,SSE,160,0.0,0.0,91,0.00,,,0.00,weatherlink.com 1.10,2013-01-23 00:32:00,
2013-01-22 16:47:00,20.8,19.0,30.31,SSE,160,0.0,0.0,91,0.00,,,0.00,weatherlink.com 1.10,2013-01-23 00:47:00,
2013-01-22 17:02:00,20.5,19.0,30.30,SSE,160,0.0,0.0,92,0.00,,,0.00,weatherlink.com 1.10,2013-01-23 01:02:00,
2013-01-22 17:17:00,20.3,18.0,30.32,SSE,160,0.0,0.0,92,0.00,,,0.00,weatherlink.com 1.10,2013-01-23 01:17:00,
2013-01-22 17:32:00,19.9,18.0,30.32,SSE,160,0.0,0.0,93,0.00,,,0.00,weatherlink.com 1.10,2013-01-23 01:32:00,
2013-01-22 17:47:00,19.7,18.0,30.32,SSE,160,0.0,0.0,94,0.00,,,0.00,weatherlink.com 1.10,2013-01-23 01:47:00,
2013-01-22 18:02:00,19.4,18.0,30.31,SSE,160,0.0,0.0,94,0.00,,,0.00,weatherlink.com 1.10,2013-01-23 02:02:00,
2013-01-22 18:17:00,19.0,18.0,30.30,SSE,160,0.0,0.0,94,0.00,,,0.00,weatherlink.com 1.10,2013-01-23 02:17:00,
2013-01-22 18:32:00,18.7,17.0,30.30,SSE,160,0.0,0.0,93,0.00,,,0.00,weatherlink.com 1.10,2013-01-23 02:32:00,
2013-01-22 18:47:00,18.4,17.0,30.30,SSE,160,0.0,0.0,94,0.00,,,0.00,weatherlink.com 1.10,2013-01-23 02:47:00,
2013-01-22 19:02:00,18.2,17.0,30.30,SSE,160,0.0,0.0,94,0.00,,,0.00,weatherlink.com 1.10,2013-01-23 03:02:00,
2013-01-22 19:17:00,17.9,17.0,30.31,SSE,160,0.0,0.0,94,0.00,,,0.00,weatherlink.com 1.10,2013-01-23 03:17:00,
2013-01-22 19:32:00,17.6,16.0,30.30,SSE,160,0.0,0.0,94,0.00,,,0.00,weatherlink.com 1.10,2013-01-23 03:32:00,
2013-01-22 20:02:00,17.1,16.0,30.30,SSE,160,0.0,0.0,95,0.00,,,0.00,weatherlink.com 1.10,2013-01-23 04:02:00,
2013-01-22 20:17:00,17.0,16.0,30.30,SSE,160,0.0,0.0,95,0.00,,,0.00,weatherlink.com 1.10,2013-01-23 04:17:00,
2013-01-22 20:32:00,16.8,16.0,30.29,SSE,160,0.0,0.0,95,0.00,,,0.00,weatherlink.com 1.10,2013-01-23 04:32:00,
2013-01-22 20:47:00,16.9,16.0,30.29,SSE,160,0.0,0.0,95,0.00,,,0.00,weatherlink.com 1.10,2013-01-23 04:47:00,
2013-01-22 21:17:00,17.0,16.0,30.30,SSE,160,0.0,0.0,95,0.00,,,0.00,weatherlink.com 1.10,2013-01-23 05:17:00,
2013-01-22 21:32:00,17.2,16.0,30.30,SSE,160,0.0,0.0,95,0.00,,,0.00,weatherlink.com 1.10,2013-01-23 05:32:00,
2013-01-22 21:47:00,17.3,16.0,30.29,SSE,160,0.0,0.0,95,0.00,,,0.00,weatherlink.com 1.10,2013-01-23 05:47:00,
2013-01-22 22:02:00,17.4,16.0,30.29,SSE,160,0.0,0.0,95,0.00,,,0.00,weatherlink.com 1.10,2013-01-23 06:02:00,
2013-01-22 22:17:00,17.4,16.0,30.28,SSE,160,0.0,0.0,95,0.00,,,0.00,weatherlink.com 1.10,2013-01-23 06:17:00,
2013-01-22 22:32:00,17.4,16.0,30.29,SSE,160,0.0,0.0,95,0.00,,,0.00,weatherlink.com 1.10,2013-01-23 06:32:00,
2013-01-22 22:47:00,17.5,16.0,30.26,SSE,160,0.0,0.0,95,0.00,,,0.00,weatherlink.com 1.10,2013-01-23 06:47:00,
2013-01-22 23:02:00,17.4,16.0,30.27,SSE,160,0.0,0.0,95,0.00,,,0.00,weatherlink.com 1.10,2013-01-23 07:02:00,
2013-01-22 23:17:00,17.5,16.0,30.27,SSE,160,0.0,0.0,95,0.00,,,0.00,weatherlink.com 1.10,2013-01-23 07:17:00,
2013-01-22 23:32:00,17.5,16.0,30.27,SSE,160,0.0,0.0,95,0.00,,,0.00,weatherlink.com 1.10,2013-01-23 07:32:00,
2013-01-22 23:47:00,17.7,17.0,30.27,SSE,160,0.0,0.0,95,0.00,,,0.00,weatherlink.com 1.10,2013-01-23 07:47:00,